Winnemucca, NV

5:39 PM PDT on March 25, 2017 (GMT -0700)
Winnemucca Municipal

Weather History for KWMC - May, 2013

Change the Weather History Date:

Saturday, May 25, 2013

  Actual Average Record
Temperature  
Mean Temperature 58 °F 58 °F  
Max Temperature 75 °F 75 °F 94 °F (1992)
Min Temperature 40 °F 40 °F 26 °F (2010)
Degree Days  
Heating Degree Days 7 8  
Month to date heating degree days 234 276  
Since 1 July heating degree days 6273 6156  
Cooling Degree Days 0 1  
Month to date cooling degree days 1 3  
Year to date cooling degree days 1 3  
Growing Degree Days 7 (Base 50)    
Moisture  
Dew Point 22 °F    
Average Humidity 32    
Maximum Humidity 51    
Minimum Humidity 12    
Precipitation  
Precipitation 0.00 in 0.04 in 0.76 in (1987)
Month to date precipitation 0.32 0.93  
Year to date precipitation 1.66 4.18  
Snow  
Snow 0.00 in 0.00 in 1.50 in (1953)
Month to date snowfall 0.0 0.1  
Since 1 July snowfall 21.9 20.9  
Snow Depth 0.00 in    
Sea Level Pressure  
Sea Level Pressure 29.84 in    
Wind  
Wind Speed 7 mph (WNW)    
Max Wind Speed 22 mph    
Max Gust Speed 28 mph    
Visibility 10 miles    
Events      
T = Trace of Precipitation, MM = Missing Value Source: NWS Daily Summary

Daily Weather History Graph

Daily Weather History Graph

Search for Another Location

Airport or City:

Trip Planner

Search our weather history database for the weather conditions in past years. The results will help you decide how hot, cold, wet, or windy it might be!

Date:

Astronomy

May. 25, 2013 Rise Set
Actual Time 5:25 AM PDT 8:11 PM PDT
Civil Twilight 4:53 AM PDT 8:43 PM PDT
Nautical Twilight 4:12 AM PDT 9:24 PM PDT
Astronomical Twilight 3:26 AM PDT 10:10 PM PDT
Moon 9:04 PM PDT (5/25) 5:56 AM PDT (5/25)
Length of Visible Light 15h 50m
Length of Day
14h 46m
Waxing Gibbous, 99% of the Moon is Illuminated
May 25
Waxing Gibbous
May 31
Last Quarter
Jun 8
New
Jun 16
First Quarter
Jun 23
Full

Hourly Weather History & Observations

Time (PDT) Temp. Windchill Dew Point Humidity Pressure Visibility Wind Dir Wind Speed Gust Speed Precip Events Conditions
12:56 AM 55.9 °F - 19.0 °F 24% 29.82 in 10.0 mi WNW 8.1 mph - N/A   Clear
1:56 AM 53.1 °F - 21.9 °F 30% 29.82 in 10.0 mi NNW 4.6 mph - N/A   Clear
2:56 AM 51.1 °F - 24.1 °F 35% 29.83 in 10.0 mi North 5.8 mph - N/A   Clear
3:56 AM 46.0 °F 41.0 °F 24.1 °F 42% 29.84 in 10.0 mi NW 10.4 mph - N/A   Clear
4:56 AM 46.0 °F 41.9 °F 27.0 °F 47% 29.85 in 10.0 mi WNW 8.1 mph - N/A   Clear
5:56 AM 41.0 °F - 25.0 °F 53% 29.87 in 10.0 mi Calm Calm - N/A   Clear
6:56 AM 48.9 °F - 27.0 °F 43% 29.88 in 10.0 mi Calm Calm - N/A   Clear
7:56 AM 53.1 °F - 28.9 °F 40% 29.90 in 10.0 mi WNW 5.8 mph - N/A   Clear
8:56 AM 59.0 °F - 27.0 °F 29% 29.91 in 10.0 mi NNW 5.8 mph - N/A   Clear
9:56 AM 60.1 °F - 25.0 °F 26% 29.91 in 10.0 mi Calm Calm - N/A   Clear
10:56 AM 64.9 °F - 24.1 °F 21% 29.89 in 10.0 mi Variable 4.6 mph - N/A   Clear
11:56 AM 66.0 °F - 21.9 °F 19% 29.87 in 10.0 mi Variable 5.8 mph - N/A   Clear
12:56 PM 70.0 °F - 18.0 °F 14% 29.85 in 10.0 mi NW 8.1 mph 18.4 mph N/A   Clear
1:56 PM 72.0 °F - 18.0 °F 13% 29.83 in 10.0 mi SW 8.1 mph 17.3 mph N/A   Clear
2:56 PM 73.0 °F - 18.0 °F 12% 29.83 in 10.0 mi WSW 15.0 mph 24.2 mph N/A   Clear
3:56 PM 73.0 °F - 18.0 °F 12% 29.82 in 10.0 mi WSW 13.8 mph 19.6 mph N/A   Clear
4:56 PM 73.0 °F - 17.1 °F 12% 29.80 in 10.0 mi WSW 11.5 mph 18.4 mph N/A   Clear
5:56 PM 71.1 °F - 17.1 °F 13% 29.81 in 10.0 mi SW 9.2 mph - N/A   Clear
6:56 PM 70.0 °F - 18.0 °F 14% 29.79 in 10.0 mi WSW 9.2 mph - N/A   Clear
7:56 PM 66.9 °F - 21.0 °F 17% 29.79 in 10.0 mi West 6.9 mph - N/A   Clear
8:56 PM 63.0 °F - 19.9 °F 19% 29.80 in 10.0 mi NNW 3.5 mph - N/A   Clear
9:56 PM 59.0 °F - 19.9 °F 22% 29.81 in 10.0 mi Calm Calm - N/A   Clear
10:56 PM 55.0 °F - 19.0 °F 24% 29.82 in 10.0 mi West 5.8 mph - N/A   Clear
11:56 PM 60.1 °F - 28.0 °F 30% 29.82 in 10.0 mi West 15.0 mph 21.9 mph N/A   Clear